Time,TemperatureF,DewpointF,PressureIn,WindDirection,WindDirectionDegrees,WindSpeedMPH,WindSpeedGustMPH,Humidity,HourlyPrecipIn,Conditions,Clouds,dailyrainin,SoftwareType,DateUTC
2013-05-10 00:00:00,59.2,56.9,30.05,SSE,165,0.0,0.0,92,0.00,,---,0.00,VWS V14.01,2013-05-10 04:00:00,
2013-05-10 00:04:00,59.1,57.1,30.05,SSE,165,0.0,0.0,93,0.00,,---,0.00,VWS V14.01,2013-05-10 04:04:00,
2013-05-10 00:05:00,59.1,57.1,30.05,SSE,165,0.0,0.0,93,0.00,,---,0.00,VWS V14.01,2013-05-10 04:05:00,
2013-05-10 00:09:00,59.0,57.0,30.05,SSE,165,0.0,0.0,93,0.00,,---,0.00,VWS V14.01,2013-05-10 04:09:00,
2013-05-10 00:10:00,59.0,57.0,30.05,SSE,165,0.0,0.0,93,0.00,,---,0.00,VWS V14.01,2013-05-10 04:10:00,
2013-05-10 00:14:00,58.9,56.9,30.05,SSE,165,0.0,0.0,93,0.00,,---,0.00,VWS V14.01,2013-05-10 04:14:00,
2013-05-10 00:15:00,58.9,56.9,30.05,SSE,165,0.0,0.0,93,0.00,,---,0.00,VWS V14.01,2013-05-10 04:15:00,
2013-05-10 00:19:00,58.8,56.5,30.05,SSE,165,0.0,0.0,92,0.00,,---,0.00,VWS V14.01,2013-05-10 04:19:00,
2013-05-10 00:20:00,58.8,56.5,30.05,SSE,165,0.0,0.0,92,0.00,,---,0.00,VWS V14.01,2013-05-10 04:20:00,
2013-05-10 00:24:00,58.6,56.6,30.05,SSE,165,0.0,0.0,93,0.00,,---,0.00,VWS V14.01,2013-05-10 04:24:00,
2013-05-10 00:25:00,58.6,56.6,30.05,SSE,165,0.0,0.0,93,0.00,,---,0.00,VWS V14.01,2013-05-10 04:25:00,
2013-05-10 00:29:00,58.5,56.5,30.05,SSE,165,0.0,0.0,93,0.00,,---,0.00,VWS V14.01,2013-05-10 04:29:00,
2013-05-10 00:30:00,58.5,56.5,30.05,SSE,165,0.0,0.0,93,0.00,,---,0.00,VWS V14.01,2013-05-10 04:30:00,
2013-05-10 00:34:00,58.4,56.4,30.05,SSE,165,0.0,0.0,93,0.00,,---,0.00,VWS V14.01,2013-05-10 04:34:00,
2013-05-10 00:35:00,58.4,56.4,30.05,SSE,165,0.0,0.0,93,0.00,,---,0.00,VWS V14.01,2013-05-10 04:35:00,
2013-05-10 00:39:00,58.3,56.3,30.05,SSE,165,0.0,0.0,93,0.00,,---,0.00,VWS V14.01,2013-05-10 04:39:00,
2013-05-10 00:40:00,58.3,56.3,30.05,SSE,165,0.0,0.0,93,0.00,,---,0.00,VWS V14.01,2013-05-10 04:40:00,
2013-05-10 00:44:00,58.3,56.6,30.05,SSE,165,0.0,0.0,94,0.00,,---,0.00,VWS V14.01,2013-05-10 04:44:00,
2013-05-10 00:45:00,58.3,56.6,30.05,SSE,165,0.0,0.0,94,0.00,,---,0.00,VWS V14.01,2013-05-10 04:45:00,
2013-05-10 00:49:00,58.3,56.6,30.06,SSE,165,0.0,0.0,94,0.00,,---,0.00,VWS V14.01,2013-05-10 04:49:00,
2013-05-10 00:50:00,58.3,56.6,30.06,SSE,165,0.0,0.0,94,0.00,,---,0.00,VWS V14.01,2013-05-10 04:50:00,
2013-05-10 00:54:00,58.2,56.2,30.06,SSE,165,0.0,0.0,93,0.00,,---,0.00,VWS V14.01,2013-05-10 04:54:00,
2013-05-10 00:55:00,58.2,56.2,30.06,SSE,165,0.0,0.0,93,0.00,,---,0.00,VWS V14.01,2013-05-10 04:55:00,
2013-05-10 00:59:00,58.1,56.4,30.06,SSE,165,0.0,0.0,94,0.00,,---,0.00,VWS V14.01,2013-05-10 04:59:00,
2013-05-10 01:00:00,58.1,56.4,30.06,SSE,165,0.0,0.0,94,0.00,,---,0.00,VWS V14.01,2013-05-10 05:00:00,
2013-05-10 01:04:00,58.0,56.3,30.06,SSE,165,0.0,0.0,94,0.00,,---,0.00,VWS V14.01,2013-05-10 05:04:00,
2013-05-10 01:05:00,58.0,56.3,30.06,SSE,165,0.0,0.0,94,0.00,,---,0.00,VWS V14.01,2013-05-10 05:05:00,
2013-05-10 01:09:00,58.1,56.4,30.06,SSE,165,0.0,0.0,94,0.00,,---,0.00,VWS V14.01,2013-05-10 05:09:00,
2013-05-10 01:10:00,58.1,56.4,30.06,SSE,165,0.0,0.0,94,0.00,,---,0.00,VWS V14.01,2013-05-10 05:10:00,
2013-05-10 01:14:00,58.0,56.3,30.06,SSE,165,0.0,0.0,94,0.00,,---,0.00,VWS V14.01,2013-05-10 05:14:00,
2013-05-10 01:15:00,58.0,56.3,30.06,SSE,165,0.0,0.0,94,0.00,,---,0.00,VWS V14.01,2013-05-10 05:15:00,
2013-05-10 01:19:00,58.1,56.4,30.05,SSE,165,0.0,0.0,94,0.00,,---,0.00,VWS V14.01,2013-05-10 05:19:00,
2013-05-10 01:20:00,58.1,56.4,30.05,SSE,165,0.0,0.0,94,0.00,,---,0.00,VWS V14.01,2013-05-10 05:20:00,
2013-05-10 01:24:00,58.0,56.3,30.05,SSE,165,0.0,0.0,94,0.00,,---,0.00,VWS V14.01,2013-05-10 05:24:00,
2013-05-10 01:25:00,58.0,56.3,30.05,SSE,165,0.0,0.0,94,0.00,,---,0.00,VWS V14.01,2013-05-10 05:25:00,
2013-05-10 01:29:00,57.8,55.8,30.05,SSE,165,0.0,0.0,93,0.00,,---,0.00,VWS V14.01,2013-05-10 05:29:00,
2013-05-10 01:30:00,57.8,55.8,30.05,SSE,165,0.0,0.0,93,0.00,,---,0.00,VWS V14.01,2013-05-10 05:30:00,
2013-05-10 01:35:00,57.6,55.6,30.04,SSE,165,0.0,0.0,93,0.00,,---,0.00,VWS V14.01,2013-05-10 05:35:00,
2013-05-10 01:39:00,57.4,55.4,30.04,SSE,165,0.0,0.0,93,0.00,,---,0.00,VWS V14.01,2013-05-10 05:39:00,
2013-05-10 01:40:00,57.4,55.4,30.04,SSE,165,0.0,0.0,93,0.00,,---,0.00,VWS V14.01,2013-05-10 05:40:00,
2013-05-10 01:44:00,57.3,55.3,30.04,SSE,165,0.0,0.0,93,0.00,,---,0.00,VWS V14.01,2013-05-10 05:44:00,
2013-05-10 01:45:00,57.3,55.3,30.04,SSE,165,0.0,0.0,93,0.00,,---,0.00,VWS V14.01,2013-05-10 05:45:00,
2013-05-10 01:50:00,57.1,55.1,30.04,SSE,165,0.0,0.0,93,0.00,,---,0.00,VWS V14.01,2013-05-10 05:50:00,
2013-05-10 01:54:00,56.9,54.9,30.04,SSE,165,0.0,0.0,93,0.00,,---,0.00,VWS V14.01,2013-05-10 05:54:00,
2013-05-10 01:55:00,56.9,54.9,30.04,SSE,165,0.0,0.0,93,0.00,,---,0.00,VWS V14.01,2013-05-10 05:55:00,
2013-05-10 01:59:00,56.7,54.7,30.04,SSE,165,0.0,0.0,93,0.00,,---,0.00,VWS V14.01,2013-05-10 05:59:00,
2013-05-10 02:00:00,56.7,54.7,30.04,SSE,165,0.0,0.0,93,0.00,,---,0.00,VWS V14.01,2013-05-10 06:00:00,
2013-05-10 02:04:00,56.6,54.9,30.04,SSE,165,0.0,0.0,94,0.00,,---,0.00,VWS V14.01,2013-05-10 06:04:00,
2013-05-10 02:05:00,56.6,54.9,30.04,SSE,165,0.0,0.0,94,0.00,,---,0.00,VWS V14.01,2013-05-10 06:05:00,
2013-05-10 02:09:00,56.5,54.8,30.04,SSE,165,0.0,0.0,94,0.00,,---,0.00,VWS V14.01,2013-05-10 06:09:00,
2013-05-10 02:10:00,56.5,54.8,30.04,SSE,165,0.0,0.0,94,0.00,,---,0.00,VWS V14.01,2013-05-10 06:10:00,
2013-05-10 02:14:00,56.6,54.9,30.04,SSE,165,0.0,0.0,94,0.00,,---,0.00,VWS V14.01,2013-05-10 06:14:00,
2013-05-10 02:15:00,56.6,54.9,30.04,SSE,165,0.0,0.0,94,0.00,,---,0.00,VWS V14.01,2013-05-10 06:15:00,
2013-05-10 02:19:00,56.5,54.8,30.04,SSE,165,0.0,0.0,94,0.00,,---,0.00,VWS V14.01,2013-05-10 06:19:00,
2013-05-10 02:20:00,56.5,54.8,30.04,SSE,165,0.0,0.0,94,0.00,,---,0.00,VWS V14.01,2013-05-10 06:20:00,
2013-05-10 02:24:00,56.5,54.8,30.04,SSE,165,0.0,0.0,94,0.00,,---,0.00,VWS V14.01,2013-05-10 06:24:00,
2013-05-10 02:25:00,56.5,54.8,30.04,SSE,165,0.0,0.0,94,0.00,,---,0.00,VWS V14.01,2013-05-10 06:25:00,
2013-05-10 02:29:00,56.4,55.0,30.04,SSE,165,0.0,0.0,95,0.00,,---,0.00,VWS V14.01,2013-05-10 06:29:00,
2013-05-10 02:30:00,56.4,55.0,30.04,SSE,165,0.0,0.0,95,0.00,,---,0.00,VWS V14.01,2013-05-10 06:30:00,
2013-05-10 02:34:00,56.4,54.7,30.04,SSE,165,0.0,0.0,94,0.00,,---,0.00,VWS V14.01,2013-05-10 06:34:00,
2013-05-10 02:35:00,56.4,54.7,30.04,SSE,165,0.0,0.0,94,0.00,,---,0.00,VWS V14.01,2013-05-10 06:35:00,
2013-05-10 02:39:00,56.2,54.5,30.05,SSE,165,0.0,0.0,94,0.00,,---,0.00,VWS V14.01,2013-05-10 06:39:00,
2013-05-10 02:40:00,56.2,54.5,30.05,SSE,165,0.0,0.0,94,0.00,,---,0.00,VWS V14.01,2013-05-10 06:40:00,
2013-05-10 02:44:00,56.0,54.3,30.05,SSE,165,0.0,0.0,94,0.00,,---,0.00,VWS V14.01,2013-05-10 06:44:00,
2013-05-10 02:45:00,56.0,54.3,30.05,SSE,165,0.0,0.0,94,0.00,,---,0.00,VWS V14.01,2013-05-10 06:45:00,
2013-05-10 02:49:00,55.9,54.2,30.05,SSE,165,0.0,0.0,94,0.00,,---,0.00,VWS V14.01,2013-05-10 06:49:00,
2013-05-10 02:50:00,55.9,54.2,30.05,SSE,165,0.0,0.0,94,0.00,,---,0.00,VWS V14.01,2013-05-10 06:50:00,
2013-05-10 02:54:00,55.8,54.1,30.05,SSE,165,0.0,0.0,94,0.00,,---,0.00,VWS V14.01,2013-05-10 06:54:00,
2013-05-10 02:55:00,55.8,54.1,30.05,SSE,165,0.0,0.0,94,0.00,,---,0.00,VWS V14.01,2013-05-10 06:55:00,
2013-05-10 02:59:00,55.8,54.4,30.05,SSE,165,0.0,0.0,95,0.00,,---,0.00,VWS V14.01,2013-05-10 06:59:00,
2013-05-10 03:00:00,55.8,54.4,30.05,SSE,165,0.0,0.0,95,0.00,,---,0.00,VWS V14.01,2013-05-10 07:00:00,
2013-05-10 03:04:00,55.8,54.4,30.04,SSE,165,0.0,0.0,95,0.00,,---,0.00,VWS V14.01,2013-05-10 07:04:00,
2013-05-10 03:05:00,55.8,54.4,30.04,SSE,165,0.0,0.0,95,0.00,,---,0.00,VWS V14.01,2013-05-10 07:05:00,
2013-05-10 03:09:00,55.9,54.5,30.04,SSE,165,0.0,0.0,95,0.00,,---,0.00,VWS V14.01,2013-05-10 07:09:00,
2013-05-10 03:10:00,55.9,54.5,30.04,SSE,165,0.0,0.0,95,0.00,,---,0.00,VWS V14.01,2013-05-10 07:10:00,
2013-05-10 03:14:00,55.7,54.3,30.04,SSE,165,0.0,0.0,95,0.00,,---,0.00,VWS V14.01,2013-05-10 07:14:00,
2013-05-10 03:15:00,55.7,54.3,30.04,SSE,165,0.0,0.0,95,0.00,,---,0.00,VWS V14.01,2013-05-10 07:15:00,
2013-05-10 03:19:00,55.5,53.8,30.05,SSE,165,0.0,0.0,94,0.00,,---,0.00,VWS V14.01,2013-05-10 07:19:00,
2013-05-10 03:20:00,55.5,53.8,30.05,SSE,165,0.0,0.0,94,0.00,,---,0.00,VWS V14.01,2013-05-10 07:20:00,
2013-05-10 03:24:00,55.3,53.6,30.05,SSE,165,0.0,0.0,94,0.00,,---,0.00,VWS V14.01,2013-05-10 07:24:00,
2013-05-10 03:25:00,55.3,53.6,30.05,SSE,165,0.0,0.0,94,0.00,,---,0.00,VWS V14.01,2013-05-10 07:25:00,
2013-05-10 03:29:00,55.3,53.9,30.05,SSE,165,0.0,0.0,95,0.00,,---,0.00,VWS V14.01,2013-05-10 07:29:00,
2013-05-10 03:30:00,55.3,53.9,30.05,SSE,165,0.0,0.0,95,0.00,,---,0.00,VWS V14.01,2013-05-10 07:30:00,
2013-05-10 03:34:00,55.2,53.8,30.04,SSE,165,0.0,0.0,95,0.00,,---,0.00,VWS V14.01,2013-05-10 07:34:00,
2013-05-10 03:35:00,55.2,53.8,30.04,SSE,165,0.0,0.0,95,0.00,,---,0.00,VWS V14.01,2013-05-10 07:35:00,
2013-05-10 03:39:00,55.1,53.7,30.04,SSE,165,0.0,0.0,95,0.00,,---,0.00,VWS V14.01,2013-05-10 07:39:00,
2013-05-10 03:40:00,55.1,53.7,30.04,SSE,165,0.0,0.0,95,0.00,,---,0.00,VWS V14.01,2013-05-10 07:40:00,
2013-05-10 03:45:00,55.0,53.6,30.04,SSE,165,0.0,0.0,95,0.00,,---,0.00,VWS V14.01,2013-05-10 07:45:00,
2013-05-10 03:49:00,54.9,53.5,30.04,SSE,165,0.0,0.0,95,0.00,,---,0.00,VWS V14.01,2013-05-10 07:49:00,
2013-05-10 03:50:00,54.9,53.5,30.04,SSE,165,0.0,0.0,95,0.00,,---,0.00,VWS V14.01,2013-05-10 07:50:00,
2013-05-10 03:54:00,54.9,53.5,30.04,SSE,165,0.0,0.0,95,0.00,,---,0.00,VWS V14.01,2013-05-10 07:54:00,
2013-05-10 03:55:00,54.9,53.5,30.04,SSE,165,0.0,0.0,95,0.00,,---,0.00,VWS V14.01,2013-05-10 07:55:00,
2013-05-10 04:00:00,54.8,53.4,30.05,SSE,165,0.0,0.0,95,0.00,,---,0.00,VWS V14.01,2013-05-10 08:00:00,
2013-05-10 04:04:00,54.6,53.2,30.04,SSE,165,0.0,0.0,95,0.00,,---,0.00,VWS V14.01,2013-05-10 08:04:00,
2013-05-10 04:05:00,54.6,53.2,30.04,SSE,165,0.0,0.0,95,0.00,,---,0.00,VWS V14.01,2013-05-10 08:05:00,
2013-05-10 04:09:00,54.5,53.1,30.04,SSE,165,0.0,0.0,95,0.00,,---,0.00,VWS V14.01,2013-05-10 08:09:00,
2013-05-10 04:10:00,54.5,53.1,30.04,SSE,165,0.0,0.0,95,0.00,,---,0.00,VWS V14.01,2013-05-10 08:10:00,
2013-05-10 04:14:00,54.5,53.1,30.04,SSE,165,0.0,0.0,95,0.00,,---,0.00,VWS V14.01,2013-05-10 08:14:00,
2013-05-10 04:15:00,54.5,53.1,30.04,SSE,165,0.0,0.0,95,0.00,,---,0.00,VWS V14.01,2013-05-10 08:15:00,
2013-05-10 04:19:00,54.5,53.1,30.04,SSE,165,0.0,0.0,95,0.00,,---,0.00,VWS V14.01,2013-05-10 08:19:00,
2013-05-10 04:20:00,54.5,53.1,30.04,SSE,165,0.0,0.0,95,0.00,,---,0.00,VWS V14.01,2013-05-10 08:20:00,
2013-05-10 04:24:00,54.6,53.5,30.03,SSE,165,0.0,0.0,96,0.00,,---,0.00,VWS V14.01,2013-05-10 08:24:00,
2013-05-10 04:25:00,54.6,53.5,30.03,SSE,165,0.0,0.0,96,0.00,,---,0.00,VWS V14.01,2013-05-10 08:25:00,
2013-05-10 04:29:00,54.6,53.5,30.03,SSE,165,0.0,0.0,96,0.00,,---,0.00,VWS V14.01,2013-05-10 08:29:00,
2013-05-10 04:30:00,54.6,53.5,30.03,SSE,165,0.0,0.0,96,0.00,,---,0.00,VWS V14.01,2013-05-10 08:30:00,
2013-05-10 04:34:00,54.5,53.1,30.03,SSE,165,0.0,0.0,95,0.00,,---,0.00,VWS V14.01,2013-05-10 08:34:00,
2013-05-10 04:35:00,54.5,53.1,30.03,SSE,165,0.0,0.0,95,0.00,,---,0.00,VWS V14.01,2013-05-10 08:35:00,
2013-05-10 04:39:00,54.4,53.0,30.03,SSE,165,0.0,0.0,95,0.00,,---,0.00,VWS V14.01,2013-05-10 08:39:00,
2013-05-10 04:40:00,54.4,53.0,30.03,SSE,165,0.0,0.0,95,0.00,,---,0.00,VWS V14.01,2013-05-10 08:40:00,
2013-05-10 04:44:00,54.2,52.8,30.03,SSE,165,0.0,0.0,95,0.00,,---,0.00,VWS V14.01,2013-05-10 08:44:00,
2013-05-10 04:45:00,54.2,52.8,30.03,SSE,165,0.0,0.0,95,0.00,,---,0.00,VWS V14.01,2013-05-10 08:45:00,
2013-05-10 04:50:00,54.1,52.7,30.03,SSE,165,0.0,0.0,95,0.00,,---,0.00,VWS V14.01,2013-05-10 08:50:00,
2013-05-10 04:54:00,54.0,52.6,30.03,SSE,165,0.0,0.0,95,0.00,,---,0.00,VWS V14.01,2013-05-10 08:54:00,
2013-05-10 04:55:00,54.0,52.6,30.03,SSE,165,0.0,0.0,95,0.00,,---,0.00,VWS V14.01,2013-05-10 08:55:00,
2013-05-10 05:00:00,53.9,52.5,30.03,SSE,165,0.0,0.0,95,0.00,,---,0.00,VWS V14.01,2013-05-10 09:00:00,
2013-05-10 05:04:00,53.8,52.4,30.03,SSE,165,0.0,0.0,95,0.00,,---,0.00,VWS V14.01,2013-05-10 09:04:00,
2013-05-10 05:05:00,53.8,52.4,30.03,SSE,165,0.0,0.0,95,0.00,,---,0.00,VWS V14.01,2013-05-10 09:05:00,
2013-05-10 05:09:00,53.8,52.4,30.03,SSE,165,0.0,0.0,95,0.00,,---,0.00,VWS V14.01,2013-05-10 09:09:00,
2013-05-10 05:10:00,53.8,52.4,30.03,SSE,165,0.0,0.0,95,0.00,,---,0.00,VWS V14.01,2013-05-10 09:10:00,
2013-05-10 05:14:00,53.7,52.3,30.03,SSE,165,0.0,0.0,95,0.00,,---,0.00,VWS V14.01,2013-05-10 09:14:00,
2013-05-10 05:15:00,53.7,52.3,30.03,SSE,165,0.0,0.0,95,0.00,,---,0.00,VWS V14.01,2013-05-10 09:15:00,
2013-05-10 05:19:00,53.7,52.3,30.03,SSE,165,0.0,0.0,95,0.00,,---,0.00,VWS V14.01,2013-05-10 09:19:00,
2013-05-10 05:20:00,53.7,52.3,30.03,SSE,165,0.0,0.0,95,0.00,,---,0.00,VWS V14.01,2013-05-10 09:20:00,
2013-05-10 05:25:00,53.6,52.2,30.03,SSE,165,0.0,0.0,95,0.00,,---,0.00,VWS V14.01,2013-05-10 09:25:00,
2013-05-10 05:29:00,53.6,52.5,30.03,SSE,165,0.0,0.0,96,0.00,,---,0.00,VWS V14.01,2013-05-10 09:29:00,
2013-05-10 05:30:00,53.6,52.5,30.03,SSE,165,0.0,0.0,96,0.00,,---,0.00,VWS V14.01,2013-05-10 09:30:00,
2013-05-10 05:34:00,53.5,52.1,30.03,SSE,165,0.0,0.0,95,0.00,,---,0.00,VWS V14.01,2013-05-10 09:34:00,
2013-05-10 05:35:00,53.5,52.1,30.03,SSE,165,0.0,0.0,95,0.00,,---,0.00,VWS V14.01,2013-05-10 09:35:00,
2013-05-10 05:39:00,53.4,52.0,30.03,SSE,165,0.0,0.0,95,0.00,,---,0.00,VWS V14.01,2013-05-10 09:39:00,
2013-05-10 05:40:00,53.4,52.0,30.03,SSE,165,0.0,0.0,95,0.00,,---,0.00,VWS V14.01,2013-05-10 09:40:00,
2013-05-10 05:44:00,53.3,52.2,30.03,SSE,165,0.0,0.0,96,0.00,,---,0.00,VWS V14.01,2013-05-10 09:44:00,
2013-05-10 05:45:00,53.3,52.2,30.03,SSE,165,0.0,0.0,96,0.00,,---,0.00,VWS V14.01,2013-05-10 09:45:00,
2013-05-10 05:49:00,53.3,51.9,30.03,SSE,165,0.0,0.0,95,0.00,,---,0.00,VWS V14.01,2013-05-10 09:49:00,
2013-05-10 05:50:00,53.3,51.9,30.03,SSE,165,0.0,0.0,95,0.00,,---,0.00,VWS V14.01,2013-05-10 09:50:00,
2013-05-10 05:54:00,53.1,51.7,30.03,SSE,165,0.0,0.0,95,0.00,,---,0.00,VWS V14.01,2013-05-10 09:54:00,
2013-05-10 05:55:00,53.1,51.7,30.03,SSE,165,0.0,0.0,95,0.00,,---,0.00,VWS V14.01,2013-05-10 09:55:00,
2013-05-10 06:00:00,53.0,51.6,30.03,SSE,165,0.0,0.0,95,0.00,,---,0.00,VWS V14.01,2013-05-10 10:00:00,
2013-05-10 06:04:00,53.1,51.7,30.03,SSE,165,0.0,0.0,95,0.00,,---,0.00,VWS V14.01,2013-05-10 10:04:00,
2013-05-10 06:05:00,53.1,51.7,30.03,SSE,165,0.0,0.0,95,0.00,,---,0.00,VWS V14.01,2013-05-10 10:05:00,
2013-05-10 06:09:00,53.0,51.6,30.03,SSE,165,0.0,0.0,95,0.00,,---,0.00,VWS V14.01,2013-05-10 10:09:00,
2013-05-10 06:10:00,53.0,51.6,30.03,SSE,165,0.0,0.0,95,0.00,,---,0.00,VWS V14.01,2013-05-10 10:10:00,
2013-05-10 06:15:00,52.8,51.4,30.03,SSE,165,0.0,0.0,95,0.00,,---,0.00,VWS V14.01,2013-05-10 10:15:00,
2013-05-10 06:19:00,52.8,51.4,30.03,SSE,165,0.0,0.0,95,0.00,,---,0.00,VWS V14.01,2013-05-10 10:19:00,
2013-05-10 06:20:00,52.8,51.4,30.03,SSE,165,0.0,0.0,95,0.00,,---,0.00,VWS V14.01,2013-05-10 10:20:00,
2013-05-10 06:24:00,52.6,51.2,30.04,SSE,165,0.0,0.0,95,0.00,,---,0.00,VWS V14.01,2013-05-10 10:24:00,
2013-05-10 06:25:00,52.6,51.2,30.04,SSE,165,0.0,0.0,95,0.00,,---,0.00,VWS V14.01,2013-05-10 10:25:00,
2013-05-10 06:29:00,52.6,51.2,30.04,SSE,165,0.0,0.0,95,0.00,,---,0.00,VWS V14.01,2013-05-10 10:29:00,
2013-05-10 06:30:00,52.6,51.2,30.04,SSE,165,0.0,0.0,95,0.00,,---,0.00,VWS V14.01,2013-05-10 10:30:00,
2013-05-10 06:34:00,52.7,51.6,30.04,SSE,165,0.0,0.0,96,0.00,,---,0.00,VWS V14.01,2013-05-10 10:34:00,
2013-05-10 06:35:00,52.7,51.6,30.04,SSE,165,0.0,0.0,96,0.00,,---,0.00,VWS V14.01,2013-05-10 10:35:00,
2013-05-10 06:39:00,52.7,51.6,30.04,SSE,165,0.0,0.0,96,0.00,,---,0.00,VWS V14.01,2013-05-10 10:39:00,
2013-05-10 06:40:00,52.7,51.6,30.04,SSE,165,0.0,0.0,96,0.00,,---,0.00,VWS V14.01,2013-05-10 10:40:00,
2013-05-10 06:44:00,52.5,51.1,30.04,SSE,165,0.0,0.0,95,0.00,,---,0.00,VWS V14.01,2013-05-10 10:44:00,
2013-05-10 06:45:00,52.5,51.1,30.04,SSE,165,0.0,0.0,95,0.00,,---,0.00,VWS V14.01,2013-05-10 10:45:00,
2013-05-10 06:49:00,52.4,51.0,30.05,SSE,165,0.0,0.0,95,0.00,,---,0.00,VWS V14.01,2013-05-10 10:49:00,
2013-05-10 06:50:00,52.4,51.0,30.05,SSE,165,0.0,0.0,95,0.00,,---,0.00,VWS V14.01,2013-05-10 10:50:00,
2013-05-10 06:54:00,52.4,51.0,30.05,SSE,165,0.0,0.0,95,0.00,,---,0.00,VWS V14.01,2013-05-10 10:54:00,
2013-05-10 06:55:00,52.4,51.0,30.05,SSE,165,0.0,0.0,95,0.00,,---,0.00,VWS V14.01,2013-05-10 10:55:00,
2013-05-10 06:59:00,52.6,51.5,30.04,SSE,165,0.0,0.0,96,0.00,,---,0.00,VWS V14.01,2013-05-10 10:59:00,
2013-05-10 07:00:00,52.6,51.5,30.04,SSE,165,0.0,0.0,96,0.00,,---,0.00,VWS V14.01,2013-05-10 11:00:00,
2013-05-10 07:04:00,52.8,51.7,30.04,SSE,165,0.0,0.0,96,0.00,,---,0.00,VWS V14.01,2013-05-10 11:04:00,
2013-05-10 07:05:00,52.8,51.7,30.04,SSE,165,0.0,0.0,96,0.00,,---,0.00,VWS V14.01,2013-05-10 11:05:00,
2013-05-10 07:09:00,52.7,51.6,30.04,SSE,165,0.0,0.0,96,0.00,,---,0.00,VWS V14.01,2013-05-10 11:09:00,
2013-05-10 07:10:00,52.7,51.6,30.04,SSE,165,0.0,0.0,96,0.00,,---,0.00,VWS V14.01,2013-05-10 11:10:00,
2013-05-10 07:15:00,52.7,51.6,30.04,SSE,165,0.0,0.0,96,0.00,,---,0.00,VWS V14.01,2013-05-10 11:15:00,
2013-05-10 07:19:00,52.7,51.6,30.04,SSE,165,0.0,0.0,96,0.00,,---,0.00,VWS V14.01,2013-05-10 11:19:00,
2013-05-10 07:20:00,52.7,51.6,30.04,SSE,165,0.0,0.0,96,0.00,,---,0.00,VWS V14.01,2013-05-10 11:20:00,
2013-05-10 07:24:00,52.8,51.7,30.05,SSE,165,0.0,0.0,96,0.00,,---,0.00,VWS V14.01,2013-05-10 11:24:00,
2013-05-10 07:25:00,52.8,51.7,30.05,SSE,165,0.0,0.0,96,0.00,,---,0.00,VWS V14.01,2013-05-10 11:25:00,
2013-05-10 07:30:00,53.0,51.9,30.05,SSE,165,0.0,0.0,96,0.00,,---,0.00,VWS V14.01,2013-05-10 11:30:00,
2013-05-10 07:34:00,53.5,52.4,30.04,SSE,165,0.0,0.0,96,0.00,,---,0.00,VWS V14.01,2013-05-10 11:34:00,
2013-05-10 07:35:00,53.5,52.4,30.04,SSE,165,0.0,0.0,96,0.00,,---,0.00,VWS V14.01,2013-05-10 11:35:00,
2013-05-10 07:39:00,53.6,52.5,30.05,SSE,165,0.0,0.0,96,0.00,,---,0.00,VWS V14.01,2013-05-10 11:39:00,
2013-05-10 07:40:00,53.6,52.5,30.05,SSE,165,0.0,0.0,96,0.00,,---,0.00,VWS V14.01,2013-05-10 11:40:00,
2013-05-10 07:44:00,53.7,52.9,30.05,SSE,165,0.0,0.0,97,0.00,,---,0.00,VWS V14.01,2013-05-10 11:44:00,
2013-05-10 07:45:00,53.7,52.9,30.05,SSE,165,0.0,0.0,97,0.00,,---,0.00,VWS V14.01,2013-05-10 11:45:00,
2013-05-10 07:49:00,53.9,53.1,30.05,SSE,165,0.0,0.0,97,0.00,,---,0.00,VWS V14.01,2013-05-10 11:49:00,
2013-05-10 07:50:00,53.9,53.1,30.05,SSE,165,0.0,0.0,97,0.00,,---,0.00,VWS V14.01,2013-05-10 11:50:00,
2013-05-10 07:54:00,54.2,53.4,30.05,SSE,165,0.0,0.0,97,0.00,,---,0.00,VWS V14.01,2013-05-10 11:54:00,
2013-05-10 07:55:00,54.2,53.4,30.05,SSE,165,0.0,0.0,97,0.00,,---,0.00,VWS V14.01,2013-05-10 11:55:00,
2013-05-10 07:59:00,54.9,54.1,30.05,SSE,165,0.0,0.0,97,0.00,,---,0.00,VWS V14.01,2013-05-10 11:59:00,
2013-05-10 08:00:00,54.9,54.1,30.05,SSE,165,0.0,0.0,97,0.00,,---,0.00,VWS V14.01,2013-05-10 12:00:00,
2013-05-10 08:04:00,55.8,55.0,30.05,SSE,165,0.0,0.0,97,0.00,,---,0.00,VWS V14.01,2013-05-10 12:04:00,
2013-05-10 08:05:00,55.8,55.0,30.05,SSE,165,0.0,0.0,97,0.00,,---,0.00,VWS V14.01,2013-05-10 12:05:00,
2013-05-10 08:09:00,56.2,55.4,30.04,SSE,165,0.0,0.0,97,0.00,,---,0.00,VWS V14.01,2013-05-10 12:09:00,
2013-05-10 08:10:00,56.2,55.4,30.04,SSE,165,0.0,0.0,97,0.00,,---,0.00,VWS V14.01,2013-05-10 12:10:00,
2013-05-10 08:14:00,56.5,55.7,30.04,SSE,165,0.0,0.0,97,0.00,,---,0.00,VWS V14.01,2013-05-10 12:14:00,
2013-05-10 08:15:00,56.5,55.7,30.04,SSE,165,0.0,0.0,97,0.00,,---,0.00,VWS V14.01,2013-05-10 12:15:00,
2013-05-10 08:19:00,57.0,56.2,30.03,SSE,165,0.0,0.0,97,0.00,,---,0.00,VWS V14.01,2013-05-10 12:19:00,
2013-05-10 08:20:00,57.0,56.2,30.03,SSE,165,0.0,0.0,97,0.00,,---,0.00,VWS V14.01,2013-05-10 12:20:00,
2013-05-10 08:24:00,57.6,56.8,30.03,SSE,165,0.0,0.0,97,0.00,,---,0.00,VWS V14.01,2013-05-10 12:24:00,
2013-05-10 08:25:00,57.6,56.8,30.03,SSE,165,0.0,0.0,97,0.00,,---,0.00,VWS V14.01,2013-05-10 12:25:00,
2013-05-10 08:29:00,58.2,57.4,30.03,SSE,165,0.0,0.0,97,0.00,,---,0.00,VWS V14.01,2013-05-10 12:29:00,
2013-05-10 08:30:00,58.2,57.4,30.03,SSE,165,0.0,0.0,97,0.00,,---,0.00,VWS V14.01,2013-05-10 12:30:00,
2013-05-10 08:35:00,59.0,58.4,30.04,SSE,165,0.0,0.0,98,0.00,,---,0.00,VWS V14.01,2013-05-10 12:35:00,
2013-05-10 08:39:00,59.5,58.7,30.03,SSE,165,0.0,0.0,97,0.00,,---,0.00,VWS V14.01,2013-05-10 12:39:00,
2013-05-10 08:40:00,59.5,58.7,30.03,SSE,165,0.0,0.0,97,0.00,,---,0.00,VWS V14.01,2013-05-10 12:40:00,
2013-05-10 08:44:00,60.0,59.2,30.03,SSE,165,0.0,0.0,97,0.00,,---,0.00,VWS V14.01,2013-05-10 12:44:00,
2013-05-10 08:45:00,60.0,59.2,30.03,SSE,165,0.0,0.0,97,0.00,,---,0.00,VWS V14.01,2013-05-10 12:45:00,
2013-05-10 08:49:00,60.5,59.9,30.03,SSE,165,0.0,0.0,98,0.00,,---,0.00,VWS V14.01,2013-05-10 12:49:00,
2013-05-10 08:50:00,60.5,59.9,30.03,SSE,165,0.0,0.0,98,0.00,,---,0.00,VWS V14.01,2013-05-10 12:50:00,
2013-05-10 08:54:00,60.9,60.3,30.03,SSE,165,0.0,0.0,98,0.00,,---,0.00,VWS V14.01,2013-05-10 12:54:00,
2013-05-10 08:55:00,60.9,60.3,30.03,SSE,165,0.0,0.0,98,0.00,,---,0.00,VWS V14.01,2013-05-10 12:55:00,
2013-05-10 09:00:00,61.3,60.4,30.03,SSE,165,0.0,0.0,97,0.00,,---,0.00,VWS V14.01,2013-05-10 13:00:00,
2013-05-10 09:04:00,62.1,61.2,30.03,SSE,165,0.0,1.0,97,0.00,,---,0.00,VWS V14.01,2013-05-10 13:04:00,
2013-05-10 09:05:00,62.1,61.2,30.03,SSE,165,0.0,1.0,97,0.00,,---,0.00,VWS V14.01,2013-05-10 13:05:00,
2013-05-10 09:09:00,63.1,62.2,30.03,SSE,165,0.0,2.0,97,0.00,,---,0.00,VWS V14.01,2013-05-10 13:09:00,
2013-05-10 09:10:00,63.1,62.2,30.03,SSE,165,0.0,2.0,97,0.00,,---,0.00,VWS V14.01,2013-05-10 13:10:00,
2013-05-10 09:14:00,64.0,61.9,30.03,SSE,165,0.0,2.0,93,0.00,,---,0.00,VWS V14.01,2013-05-10 13:14:00,
2013-05-10 09:15:00,64.0,61.9,30.03,SSE,165,0.0,2.0,93,0.00,,---,0.00,VWS V14.01,2013-05-10 13:15:00,
2013-05-10 09:19:00,64.9,62.2,30.03,SSE,165,0.0,1.0,91,0.00,,---,0.00,VWS V14.01,2013-05-10 13:19:00,
2013-05-10 09:20:00,64.9,62.2,30.03,SSE,165,0.0,1.0,91,0.00,,---,0.00,VWS V14.01,2013-05-10 13:20:00,
2013-05-10 09:24:00,65.7,62.4,30.03,SSE,165,0.0,0.0,89,0.00,,---,0.00,VWS V14.01,2013-05-10 13:24:00,
2013-05-10 09:25:00,65.7,62.4,30.03,SSE,165,0.0,0.0,89,0.00,,---,0.00,VWS V14.01,2013-05-10 13:25:00,
2013-05-10 09:29:00,66.5,62.5,30.03,SSE,165,0.0,0.0,87,0.00,,---,0.00,VWS V14.01,2013-05-10 13:29:00,
2013-05-10 09:30:00,66.5,62.5,30.03,SSE,165,0.0,0.0,87,0.00,,---,0.00,VWS V14.01,2013-05-10 13:30:00,
2013-05-10 09:34:00,67.0,62.7,30.03,SSE,165,1.0,1.0,86,0.00,,---,0.00,VWS V14.01,2013-05-10 13:34:00,
2013-05-10 09:35:00,67.0,62.7,30.03,SSE,165,1.0,1.0,86,0.00,,---,0.00,VWS V14.01,2013-05-10 13:35:00,
2013-05-10 09:39:00,67.4,62.1,30.03,SSE,165,0.0,2.0,83,0.00,,---,0.00,VWS V14.01,2013-05-10 13:39:00,
2013-05-10 09:40:00,67.4,62.1,30.03,SSE,165,0.0,2.0,83,0.00,,---,0.00,VWS V14.01,2013-05-10 13:40:00,
2013-05-10 09:45:00,68.1,62.8,30.03,SSE,165,0.0,0.0,83,0.00,,---,0.00,VWS V14.01,2013-05-10 13:45:00,
2013-05-10 09:49:00,68.6,62.9,30.03,SSE,165,0.0,1.0,82,0.00,,---,0.00,VWS V14.01,2013-05-10 13:49:00,
2013-05-10 09:50:00,68.6,62.9,30.03,SSE,165,0.0,1.0,82,0.00,,---,0.00,VWS V14.01,2013-05-10 13:50:00,
2013-05-10 09:54:00,69.1,63.4,30.04,SSE,165,0.0,0.0,82,0.00,,---,0.00,VWS V14.01,2013-05-10 13:54:00,
2013-05-10 09:55:00,69.1,63.4,30.04,SSE,165,0.0,0.0,82,0.00,,---,0.00,VWS V14.01,2013-05-10 13:55:00,
2013-05-10 09:59:00,69.4,61.9,30.04,SSE,165,0.0,2.0,77,0.00,,---,0.00,VWS V14.01,2013-05-10 13:59:00,
2013-05-10 10:00:00,69.4,61.9,30.04,SSE,165,0.0,2.0,77,0.00,,---,0.00,VWS V14.01,2013-05-10 14:00:00,
2013-05-10 10:04:00,70.1,63.7,30.03,SSE,165,0.0,1.0,80,0.00,,---,0.00,VWS V14.01,2013-05-10 14:04:00,
2013-05-10 10:05:00,70.1,63.7,30.03,SSE,165,0.0,1.0,80,0.00,,---,0.00,VWS V14.01,2013-05-10 14:05:00,
2013-05-10 10:09:00,70.6,61.9,30.03,South,174,0.0,2.0,74,0.00,,---,0.00,VWS V14.01,2013-05-10 14:09:00,
2013-05-10 10:10:00,70.6,61.9,30.03,South,174,0.0,4.0,74,0.00,,---,0.00,VWS V14.01,2013-05-10 14:10:00,
2013-05-10 10:14:00,71.2,61.7,30.03,SSW,202,0.0,4.0,72,0.00,,---,0.00,VWS V14.01,2013-05-10 14:14:00,
2013-05-10 10:15:00,71.2,61.7,30.03,SSW,202,0.0,4.0,72,0.00,,---,0.00,VWS V14.01,2013-05-10 14:15:00,
2013-05-10 10:19:00,71.7,62.2,30.03,SSW,211,0.0,3.0,72,0.00,,---,0.00,VWS V14.01,2013-05-10 14:19:00,
2013-05-10 10:20:00,71.7,62.2,30.03,SSW,211,0.0,3.0,72,0.00,,---,0.00,VWS V14.01,2013-05-10 14:20:00,
2013-05-10 10:25:00,72.1,61.4,30.03,SSW,209,0.0,4.0,69,0.00,,---,0.00,VWS V14.01,2013-05-10 14:25:00,
2013-05-10 10:29:00,72.6,62.3,30.03,SSW,202,1.0,2.0,70,0.00,,---,0.00,VWS V14.01,2013-05-10 14:29:00,
2013-05-10 10:30:00,72.6,62.3,30.03,SSW,202,1.0,2.0,70,0.00,,---,0.00,VWS V14.01,2013-05-10 14:30:00,
2013-05-10 10:34:00,73.1,61.9,30.03,SSW,202,0.0,3.0,68,0.00,,---,0.00,VWS V14.01,2013-05-10 14:34:00,
2013-05-10 10:35:00,73.1,61.9,30.03,SSW,202,0.0,3.0,68,0.00,,---,0.00,VWS V14.01,2013-05-10 14:35:00,
2013-05-10 10:39:00,73.5,61.9,30.03,SSW,202,0.0,4.0,67,0.00,,---,0.00,VWS V14.01,2013-05-10 14:39:00,
2013-05-10 10:40:00,73.5,61.9,30.03,SSW,202,0.0,4.0,67,0.00,,---,0.00,VWS V14.01,2013-05-10 14:40:00,
2013-05-10 10:44:00,73.9,61.4,30.03,SSW,193,0.0,4.0,65,0.00,,---,0.00,VWS V14.01,2013-05-10 14:44:00,
2013-05-10 10:45:00,73.9,61.4,30.03,SSW,193,0.0,4.0,65,0.00,,---,0.00,VWS V14.01,2013-05-10 14:45:00,
2013-05-10 10:50:00,74.4,61.9,30.03,SSW,195,0.0,4.0,65,0.00,,---,0.00,VWS V14.01,2013-05-10 14:50:00,
2013-05-10 10:54:00,75.0,62.0,30.03,SSW,195,0.0,3.0,64,0.00,,---,0.00,VWS V14.01,2013-05-10 14:54:00,
2013-05-10 10:55:00,75.0,62.0,30.03,SSW,195,0.0,3.0,64,0.00,,---,0.00,VWS V14.01,2013-05-10 14:55:00,
2013-05-10 10:59:00,75.8,62.8,30.03,SSW,194,0.0,3.0,64,0.00,,---,0.00,VWS V14.01,2013-05-10 14:59:00,
2013-05-10 11:00:00,75.8,62.8,30.03,SSW,194,0.0,3.0,64,0.00,,---,0.00,VWS V14.01,2013-05-10 15:00:00,
2013-05-10 11:05:00,76.5,62.5,30.03,SW,224,0.0,4.0,62,0.00,,---,0.00,VWS V14.01,2013-05-10 15:05:00,
2013-05-10 11:09:00,76.7,63.6,30.02,SW,224,0.0,2.0,64,0.00,,---,0.00,VWS V14.01,2013-05-10 15:09:00,
2013-05-10 11:10:00,76.7,63.6,30.02,SW,224,0.0,2.0,64,0.00,,---,0.00,VWS V14.01,2013-05-10 15:10:00,
2013-05-10 11:14:00,77.0,63.5,30.02,SSW,207,2.0,4.0,63,0.00,,---,0.00,VWS V14.01,2013-05-10 15:14:00,
2013-05-10 11:15:00,77.0,63.5,30.02,SSW,207,2.0,4.0,63,0.00,,---,0.00,VWS V14.01,2013-05-10 15:15:00,
2013-05-10 11:20:00,77.4,63.8,30.02,SSW,207,2.0,4.0,63,0.00,,---,0.00,VWS V14.01,2013-05-10 15:20:00,
2013-05-10 11:24:00,77.6,62.6,30.02,SSW,207,1.0,3.0,60,0.00,,---,0.00,VWS V14.01,2013-05-10 15:24:00,
2013-05-10 11:25:00,77.6,62.6,30.02,SSW,207,1.0,3.0,60,0.00,,---,0.00,VWS V14.01,2013-05-10 15:25:00,
2013-05-10 11:30:00,77.7,62.2,30.02,SSW,208,0.0,4.0,59,0.00,,---,0.00,VWS V14.01,2013-05-10 15:30:00,
2013-05-10 11:34:00,78.0,64.4,30.02,SSW,208,0.0,0.0,63,0.00,,---,0.00,VWS V14.01,2013-05-10 15:34:00,
2013-05-10 11:35:00,78.0,64.4,30.02,SSW,208,0.0,0.0,63,0.00,,---,0.00,VWS V14.01,2013-05-10 15:35:00,
2013-05-10 11:39:00,78.3,62.8,30.02,SSW,204,0.0,5.0,59,0.00,,---,0.00,VWS V14.01,2013-05-10 15:39:00,
2013-05-10 11:40:00,78.3,62.8,30.02,SSW,204,0.0,5.0,59,0.00,,---,0.00,VWS V14.01,2013-05-10 15:40:00,
2013-05-10 11:45:00,78.9,61.9,30.02,SSW,204,0.0,2.0,56,0.00,,---,0.00,VWS V14.01,2013-05-10 15:45:00,
2013-05-10 11:49:00,79.7,63.1,30.01,SSW,204,0.0,1.0,57,0.00,,---,0.00,VWS V14.01,2013-05-10 15:49:00,
2013-05-10 11:50:00,79.7,63.1,30.01,SSW,204,0.0,1.0,57,0.00,,---,0.00,VWS V14.01,2013-05-10 15:50:00,
2013-05-10 11:55:00,80.4,63.8,30.01,SSW,207,2.0,2.0,57,0.00,,---,0.00,VWS V14.01,2013-05-10 15:55:00,
2013-05-10 11:59:00,80.9,61.6,30.01,SSW,207,0.0,3.0,52,0.00,,---,0.00,VWS V14.01,2013-05-10 15:59:00,
2013-05-10 12:00:00,80.9,61.6,30.01,SSW,207,0.0,3.0,52,0.00,,---,0.00,VWS V14.01,2013-05-10 16:00:00,
2013-05-10 12:04:00,81.3,60.3,30.01,South,178,0.0,4.0,49,0.00,,---,0.00,VWS V14.01,2013-05-10 16:04:00,
2013-05-10 12:05:00,81.3,60.3,30.01,South,178,0.0,4.0,49,0.00,,---,0.00,VWS V14.01,2013-05-10 16:05:00,
2013-05-10 12:09:00,81.3,59.8,30.01,SSW,202,2.0,4.0,48,0.00,,---,0.00,VWS V14.01,2013-05-10 16:09:00,
2013-05-10 12:10:00,81.3,59.8,30.01,SSW,202,2.0,4.0,48,0.00,,---,0.00,VWS V14.01,2013-05-10 16:10:00,
2013-05-10 12:14:00,81.2,62.5,30.01,SSW,202,0.0,2.0,53,0.00,,---,0.00,VWS V14.01,2013-05-10 16:14:00,
2013-05-10 12:15:00,81.2,62.5,30.01,SSW,202,0.0,2.0,53,0.00,,---,0.00,VWS V14.01,2013-05-10 16:15:00,
2013-05-10 12:19:00,81.5,62.2,30.01,SSW,195,0.0,3.0,52,0.00,,---,0.00,VWS V14.01,2013-05-10 16:19:00,
2013-05-10 12:20:00,81.5,62.2,30.01,SSW,195,0.0,3.0,52,0.00,,---,0.00,VWS V14.01,2013-05-10 16:20:00,
2013-05-10 12:24:00,81.7,61.3,30.01,NNW,333,0.0,4.0,50,0.00,,---,0.00,VWS V14.01,2013-05-10 16:24:00,
2013-05-10 12:25:00,81.7,61.3,30.01,NNW,333,0.0,4.0,50,0.00,,---,0.00,VWS V14.01,2013-05-10 16:25:00,
2013-05-10 12:29:00,81.5,59.3,30.01,WNW,290,0.0,4.0,47,0.00,,---,0.00,VWS V14.01,2013-05-10 16:29:00,
2013-05-10 12:30:00,81.5,59.3,30.01,WNW,290,0.0,4.0,47,0.00,,---,0.00,VWS V14.01,2013-05-10 16:30:00,
2013-05-10 12:34:00,81.6,60.0,30.01,SSW,213,0.0,3.0,48,0.00,,---,0.00,VWS V14.01,2013-05-10 16:34:00,
2013-05-10 12:35:00,81.6,60.0,30.01,SSW,213,0.0,3.0,48,0.00,,---,0.00,VWS V14.01,2013-05-10 16:35:00,
2013-05-10 12:39:00,81.8,61.4,30.01,SSE,165,1.0,5.0,50,0.00,,---,0.00,VWS V14.01,2013-05-10 16:39:00,
2013-05-10 12:40:00,81.8,61.4,30.01,SSE,165,1.0,5.0,50,0.00,,---,0.00,VWS V14.01,2013-05-10 16:40:00,
2013-05-10 12:45:00,81.9,61.5,30.00,South,173,0.0,5.0,50,0.00,,---,0.00,VWS V14.01,2013-05-10 16:45:00,
2013-05-10 12:49:00,82.0,62.1,30.00,West,275,0.0,2.0,51,0.00,,---,0.00,VWS V14.01,2013-05-10 16:49:00,
2013-05-10 12:50:00,82.0,62.1,30.00,West,275,0.0,2.0,51,0.00,,---,0.00,VWS V14.01,2013-05-10 16:50:00,
2013-05-10 12:54:00,82.0,62.1,30.00,SSW,200,2.0,5.0,51,0.00,,---,0.00,VWS V14.01,2013-05-10 16:54:00,
2013-05-10 12:55:00,82.0,62.1,30.00,SSW,200,2.0,5.0,51,0.00,,---,0.00,VWS V14.01,2013-05-10 16:55:00,
2013-05-10 12:59:00,82.1,60.5,30.00,SSW,198,1.0,6.0,48,0.00,,---,0.00,VWS V14.01,2013-05-10 16:59:00,
2013-05-10 13:00:00,82.1,60.5,30.00,SSW,198,1.0,6.0,48,0.00,,---,0.00,VWS V14.01,2013-05-10 17:00:00,
2013-05-10 13:05:00,82.0,62.7,30.00,SW,220,1.0,3.0,52,0.00,,---,0.00,VWS V14.01,2013-05-10 17:05:00,
2013-05-10 13:09:00,81.9,63.1,30.00,SSE,165,4.0,5.0,53,0.00,,---,0.00,VWS V14.01,2013-05-10 17:09:00,
2013-05-10 13:10:00,81.9,63.1,30.00,SSE,165,4.0,5.0,53,0.00,,---,0.00,VWS V14.01,2013-05-10 17:10:00,
2013-05-10 13:14:00,81.9,61.5,29.99,SSE,147,0.0,4.0,50,0.00,,---,0.00,VWS V14.01,2013-05-10 17:14:00,
2013-05-10 13:15:00,81.9,61.5,29.99,SSE,147,0.0,4.0,50,0.00,,---,0.00,VWS V14.01,2013-05-10 17:15:00,
2013-05-10 13:20:00,81.8,61.9,29.99,West,261,0.0,4.0,51,0.00,,---,0.00,VWS V14.01,2013-05-10 17:20:00,
2013-05-10 13:24:00,82.0,63.2,29.99,SW,219,0.0,3.0,53,0.00,,---,0.00,VWS V14.01,2013-05-10 17:24:00,
2013-05-10 13:25:00,82.0,63.2,29.99,SW,219,0.0,3.0,53,0.00,,---,0.00,VWS V14.01,2013-05-10 17:25:00,
2013-05-10 13:29:00,82.4,61.9,29.99,South,173,0.0,8.0,50,0.00,,---,0.00,VWS V14.01,2013-05-10 17:29:00,
2013-05-10 13:30:00,82.4,61.9,29.99,South,173,0.0,8.0,50,0.00,,---,0.00,VWS V14.01,2013-05-10 17:30:00,
2013-05-10 13:35:00,82.4,62.5,29.99,NW,323,2.0,5.0,51,0.00,,---,0.00,VWS V14.01,2013-05-10 17:35:00,
2013-05-10 13:39:00,82.6,63.2,29.99,SE,134,2.0,4.0,52,0.00,,---,0.00,VWS V14.01,2013-05-10 17:39:00,
2013-05-10 13:40:00,82.6,63.2,29.99,SE,134,2.0,4.0,52,0.00,,---,0.00,VWS V14.01,2013-05-10 17:40:00,
2013-05-10 13:44:00,82.7,61.0,29.99,SSE,164,2.0,8.0,48,0.00,,---,0.00,VWS V14.01,2013-05-10 17:44:00,
2013-05-10 13:45:00,82.7,61.0,29.99,SSE,164,2.0,8.0,48,0.00,,---,0.00,VWS V14.01,2013-05-10 17:45:00,
2013-05-10 13:50:00,82.7,62.2,29.99,SSE,147,5.0,5.0,50,0.00,,---,0.00,VWS V14.01,2013-05-10 17:50:00,
2013-05-10 13:54:00,82.8,62.8,29.98,SSW,209,1.0,7.0,51,0.00,,---,0.00,VWS V14.01,2013-05-10 17:54:00,
2013-05-10 13:55:00,82.8,62.8,29.98,SSW,209,1.0,7.0,51,0.00,,---,0.00,VWS V14.01,2013-05-10 17:55:00,
2013-05-10 13:59:00,82.8,61.1,29.99,SW,225,2.0,9.0,48,0.00,,---,0.00,VWS V14.01,2013-05-10 17:59:00,
2013-05-10 14:00:00,82.8,61.1,29.99,SW,225,2.0,9.0,48,0.00,,---,0.00,VWS V14.01,2013-05-10 18:00:00,
2013-05-10 14:04:00,82.4,61.9,29.98,South,182,4.0,7.0,50,0.00,,---,0.00,VWS V14.01,2013-05-10 18:04:00,
2013-05-10 14:05:00,82.4,61.9,29.98,South,182,4.0,7.0,50,0.00,,---,0.00,VWS V14.01,2013-05-10 18:05:00,
2013-05-10 14:10:00,82.6,63.2,29.98,NW,317,1.0,10.0,52,0.00,,---,0.00,VWS V14.01,2013-05-10 18:10:00,
2013-05-10 14:14:00,83.0,63.6,29.98,WNW,293,2.0,4.0,52,0.00,,---,0.00,VWS V14.01,2013-05-10 18:14:00,
2013-05-10 14:15:00,83.0,63.6,29.98,WNW,293,2.0,4.0,52,0.00,,---,0.00,VWS V14.01,2013-05-10 18:15:00,
2013-05-10 14:19:00,83.3,63.3,29.98,ENE,77,1.0,6.0,51,0.00,,---,0.00,VWS V14.01,2013-05-10 18:19:00,
2013-05-10 14:20:00,83.3,63.3,29.98,ENE,77,1.0,6.0,51,0.00,,---,0.00,VWS V14.01,2013-05-10 18:20:00,
2013-05-10 14:24:00,83.1,62.5,29.98,WSW,237,0.0,10.0,50,0.00,,---,0.00,VWS V14.01,2013-05-10 18:24:00,
2013-05-10 14:25:00,83.1,62.5,29.98,WSW,237,0.0,10.0,50,0.00,,---,0.00,VWS V14.01,2013-05-10 18:25:00,
2013-05-10 14:29:00,82.6,62.7,29.98,SSE,161,0.0,6.0,51,0.00,,---,0.00,VWS V14.01,2013-05-10 18:29:00,
2013-05-10 14:30:00,82.6,62.7,29.98,SSE,161,0.0,6.0,51,0.00,,---,0.00,VWS V14.01,2013-05-10 18:30:00,
2013-05-10 14:34:00,82.4,61.3,29.97,South,180,1.0,5.0,49,0.00,,---,0.00,VWS V14.01,2013-05-10 18:34:00,
2013-05-10 14:35:00,82.4,61.3,29.97,South,180,1.0,5.0,49,0.00,,---,0.00,VWS V14.01,2013-05-10 18:35:00,
2013-05-10 14:40:00,82.5,62.0,29.97,SSE,167,0.0,2.0,50,0.00,,---,0.00,VWS V14.01,2013-05-10 18:40:00,
2013-05-10 14:44:00,82.5,62.6,29.97,SW,228,1.0,5.0,51,0.00,,---,0.00,VWS V14.01,2013-05-10 18:44:00,
2013-05-10 14:45:00,82.5,62.6,29.97,SW,228,1.0,5.0,51,0.00,,---,0.00,VWS V14.01,2013-05-10 18:45:00,
2013-05-10 14:50:00,82.5,60.3,29.97,West,267,4.0,7.0,47,0.00,,---,0.00,VWS V14.01,2013-05-10 18:50:00,
2013-05-10 14:54:00,82.5,59.7,29.97,NW,315,1.0,8.0,46,0.00,,---,0.00,VWS V14.01,2013-05-10 18:54:00,
2013-05-10 14:55:00,82.5,59.7,29.97,NW,315,1.0,8.0,46,0.00,,---,0.00,VWS V14.01,2013-05-10 18:55:00,
2013-05-10 14:59:00,82.5,60.3,29.97,WSW,247,0.0,5.0,47,0.00,,---,0.00,VWS V14.01,2013-05-10 18:59:00,
2013-05-10 15:00:00,82.5,60.3,29.97,WSW,247,0.0,5.0,47,0.00,,---,0.00,VWS V14.01,2013-05-10 19:00:00,
2013-05-10 15:04:00,82.6,60.9,29.97,WNW,288,0.0,13.0,48,0.00,,---,0.00,VWS V14.01,2013-05-10 19:04:00,
2013-05-10 15:05:00,82.6,60.9,29.97,WNW,288,0.0,13.0,48,0.00,,---,0.00,VWS V14.01,2013-05-10 19:05:00,
2013-05-10 15:10:00,82.7,61.6,29.97,SSW,196,6.0,7.0,49,0.00,,---,0.00,VWS V14.01,2013-05-10 19:10:00,
2013-05-10 15:14:00,82.4,60.8,29.97,West,267,0.0,9.0,48,0.00,,---,0.00,VWS V14.01,2013-05-10 19:14:00,
2013-05-10 15:15:00,82.4,60.8,29.97,West,267,0.0,9.0,48,0.00,,---,0.00,VWS V14.01,2013-05-10 19:15:00,
2013-05-10 15:19:00,82.3,60.7,29.96,WNW,290,3.0,10.0,48,0.00,,---,0.00,VWS V14.01,2013-05-10 19:19:00,
2013-05-10 15:20:00,82.3,60.7,29.96,WNW,290,3.0,10.0,48,0.00,,---,0.00,VWS V14.01,2013-05-10 19:20:00,
2013-05-10 15:24:00,82.0,61.0,29.96,SW,227,1.0,7.0,49,0.00,,---,0.00,VWS V14.01,2013-05-10 19:24:00,
2013-05-10 15:25:00,82.0,61.0,29.96,SW,227,1.0,7.0,49,0.00,,---,0.00,VWS V14.01,2013-05-10 19:25:00,
2013-05-10 15:29:00,81.8,60.2,29.95,SW,232,2.0,10.0,48,0.00,,---,0.00,VWS V14.01,2013-05-10 19:29:00,
2013-05-10 15:30:00,81.8,60.2,29.95,SW,232,2.0,10.0,48,0.00,,---,0.00,VWS V14.01,2013-05-10 19:30:00,
2013-05-10 15:34:00,81.8,61.9,29.95,WSW,238,3.0,4.0,51,0.00,,---,0.00,VWS V14.01,2013-05-10 19:34:00,
2013-05-10 15:35:00,81.8,61.9,29.95,WSW,238,3.0,4.0,51,0.00,,---,0.00,VWS V14.01,2013-05-10 19:35:00,
2013-05-10 15:40:00,81.9,62.6,29.95,WSW,238,2.0,4.0,52,0.00,,---,0.00,VWS V14.01,2013-05-10 19:40:00,
2013-05-10 15:44:00,82.0,61.5,29.94,South,174,4.0,6.0,50,0.00,,---,0.00,VWS V14.01,2013-05-10 19:44:00,
2013-05-10 15:45:00,82.0,61.5,29.94,South,174,4.0,6.0,50,0.00,,---,0.00,VWS V14.01,2013-05-10 19:45:00,
2013-05-10 15:49:00,82.0,61.5,29.94,SSE,156,2.0,11.0,50,0.00,,---,0.00,VWS V14.01,2013-05-10 19:49:00,
2013-05-10 15:50:00,82.0,61.5,29.94,SSE,156,2.0,11.0,50,0.00,,---,0.00,VWS V14.01,2013-05-10 19:50:00,
2013-05-10 15:54:00,82.0,61.0,29.94,SSE,162,0.0,5.0,49,0.00,,---,0.00,VWS V14.01,2013-05-10 19:54:00,
2013-05-10 15:55:00,82.0,61.0,29.94,SSE,162,0.0,5.0,49,0.00,,---,0.00,VWS V14.01,2013-05-10 19:55:00,
2013-05-10 15:59:00,81.9,62.0,29.94,SW,235,0.0,9.0,51,0.00,,---,0.00,VWS V14.01,2013-05-10 19:59:00,
2013-05-10 16:00:00,81.9,62.0,29.94,SW,235,0.0,9.0,51,0.00,,---,0.00,VWS V14.01,2013-05-10 20:00:00,
2013-05-10 16:04:00,81.8,60.8,29.94,WSW,246,3.0,11.0,49,0.00,,---,0.00,VWS V14.01,2013-05-10 20:04:00,
2013-05-10 16:05:00,81.8,60.8,29.94,WSW,246,3.0,11.0,49,0.00,,---,0.00,VWS V14.01,2013-05-10 20:05:00,
2013-05-10 16:09:00,81.4,62.1,29.94,WSW,238,1.0,7.0,52,0.00,,---,0.00,VWS V14.01,2013-05-10 20:09:00,
2013-05-10 16:10:00,81.4,62.1,29.94,WSW,238,1.0,7.0,52,0.00,,---,0.00,VWS V14.01,2013-05-10 20:10:00,
2013-05-10 16:14:00,81.5,61.7,29.93,WNW,295,1.0,8.0,51,0.00,,---,0.00,VWS V14.01,2013-05-10 20:14:00,
2013-05-10 16:15:00,81.5,61.7,29.93,WNW,295,1.0,8.0,51,0.00,,---,0.00,VWS V14.01,2013-05-10 20:15:00,
2013-05-10 16:19:00,81.6,60.0,29.93,South,169,0.0,7.0,48,0.00,,---,0.00,VWS V14.01,2013-05-10 20:19:00,
2013-05-10 16:20:00,81.6,60.0,29.93,South,169,0.0,7.0,48,0.00,,---,0.00,VWS V14.01,2013-05-10 20:20:00,
2013-05-10 16:24:00,81.8,60.8,29.93,NNW,330,2.0,5.0,49,0.00,,---,0.00,VWS V14.01,2013-05-10 20:24:00,
2013-05-10 16:25:00,81.8,60.8,29.93,NNW,330,2.0,5.0,49,0.00,,---,0.00,VWS V14.01,2013-05-10 20:25:00,
2013-05-10 16:29:00,81.9,61.5,29.93,ESE,110,1.0,6.0,50,0.00,,---,0.00,VWS V14.01,2013-05-10 20:29:00,
2013-05-10 16:30:00,81.9,61.5,29.93,ESE,110,1.0,6.0,50,0.00,,---,0.00,VWS V14.01,2013-05-10 20:30:00,
2013-05-10 16:34:00,81.8,61.4,29.93,SSW,194,0.0,5.0,50,0.00,,---,0.00,VWS V14.01,2013-05-10 20:34:00,
2013-05-10 16:35:00,81.8,61.4,29.93,SSW,194,0.0,5.0,50,0.00,,---,0.00,VWS V14.01,2013-05-10 20:35:00,
2013-05-10 16:40:00,81.5,60.5,29.93,SSW,210,0.0,8.0,49,0.00,,---,0.00,VWS V14.01,2013-05-10 20:40:00,
2013-05-10 16:44:00,81.4,61.0,29.93,SSW,198,0.0,9.0,50,0.00,,---,0.00,VWS V14.01,2013-05-10 20:44:00,
2013-05-10 16:45:00,81.4,61.0,29.93,SSW,198,0.0,9.0,50,0.00,,---,0.00,VWS V14.01,2013-05-10 20:45:00,
2013-05-10 16:49:00,81.4,61.5,29.93,SSW,211,0.0,4.0,51,0.00,,---,0.00,VWS V14.01,2013-05-10 20:49:00,
2013-05-10 16:50:00,81.4,61.5,29.93,SSW,211,0.0,4.0,51,0.00,,---,0.00,VWS V14.01,2013-05-10 20:50:00,
2013-05-10 16:55:00,81.3,60.9,29.93,SSW,196,2.0,10.0,50,0.00,,---,0.00,VWS V14.01,2013-05-10 20:55:00,
2013-05-10 16:59:00,81.0,60.6,29.93,NW,319,1.0,6.0,50,0.00,,---,0.00,VWS V14.01,2013-05-10 20:59:00,
2013-05-10 17:00:00,81.0,60.6,29.93,NW,319,1.0,6.0,50,0.00,,---,0.00,VWS V14.01,2013-05-10 21:00:00,
2013-05-10 17:04:00,80.8,60.4,29.93,SSW,192,0.0,8.0,50,0.00,,---,0.00,VWS V14.01,2013-05-10 21:04:00,
2013-05-10 17:05:00,80.8,60.4,29.93,SSW,192,0.0,8.0,50,0.00,,---,0.00,VWS V14.01,2013-05-10 21:05:00,
2013-05-10 17:09:00,80.8,60.4,29.93,NW,309,0.0,6.0,50,0.00,,---,0.00,VWS V14.01,2013-05-10 21:09:00,
2013-05-10 17:10:00,80.8,60.4,29.93,NW,309,0.0,6.0,50,0.00,,---,0.00,VWS V14.01,2013-05-10 21:10:00,
2013-05-10 17:14:00,80.7,60.3,29.93,West,275,1.0,9.0,50,0.00,,---,0.00,VWS V14.01,2013-05-10 21:14:00,
2013-05-10 17:15:00,80.7,60.3,29.93,West,275,1.0,9.0,50,0.00,,---,0.00,VWS V14.01,2013-05-10 21:15:00,
2013-05-10 17:19:00,80.6,61.4,29.93,SW,234,0.0,5.0,52,0.00,,---,0.00,VWS V14.01,2013-05-10 21:19:00,
2013-05-10 17:20:00,80.6,61.4,29.93,SW,234,0.0,5.0,52,0.00,,---,0.00,VWS V14.01,2013-05-10 21:20:00,
2013-05-10 17:25:00,80.6,61.4,29.93,SSW,194,6.0,6.0,52,0.00,,---,0.00,VWS V14.01,2013-05-10 21:25:00,
2013-05-10 17:29:00,80.5,60.2,29.93,West,265,0.0,6.0,50,0.00,,---,0.00,VWS V14.01,2013-05-10 21:29:00,
2013-05-10 17:30:00,80.5,60.2,29.93,West,265,0.0,6.0,50,0.00,,---,0.00,VWS V14.01,2013-05-10 21:30:00,
2013-05-10 17:34:00,80.5,61.3,29.93,South,171,1.0,5.0,52,0.00,,---,0.00,VWS V14.01,2013-05-10 21:34:00,
2013-05-10 17:35:00,80.5,61.3,29.93,South,171,1.0,5.0,52,0.00,,---,0.00,VWS V14.01,2013-05-10 21:35:00,
2013-05-10 17:39:00,80.3,61.6,29.93,South,184,0.0,7.0,53,0.00,,---,0.00,VWS V14.01,2013-05-10 21:39:00,
2013-05-10 17:40:00,80.3,61.6,29.93,South,184,0.0,7.0,53,0.00,,---,0.00,VWS V14.01,2013-05-10 21:40:00,
2013-05-10 17:44:00,80.0,60.8,29.93,SW,227,0.0,7.0,52,0.00,,---,0.00,VWS V14.01,2013-05-10 21:44:00,
2013-05-10 17:45:00,80.0,60.8,29.93,SW,227,0.0,7.0,52,0.00,,---,0.00,VWS V14.01,2013-05-10 21:45:00,
2013-05-10 17:50:00,80.0,62.4,29.93,SW,227,0.0,1.0,55,0.00,,---,0.00,VWS V14.01,2013-05-10 21:50:00,
2013-05-10 17:54:00,79.8,62.7,29.92,NW,318,0.0,2.0,56,0.00,,---,0.00,VWS V14.01,2013-05-10 21:54:00,
2013-05-10 17:55:00,79.8,62.7,29.92,NW,318,0.0,2.0,56,0.00,,---,0.00,VWS V14.01,2013-05-10 21:55:00,
2013-05-10 17:59:00,79.6,61.0,29.93,SSE,165,1.0,4.0,53,0.00,,---,0.00,VWS V14.01,2013-05-10 21:59:00,
2013-05-10 18:00:00,79.6,61.0,29.93,SSE,165,1.0,4.0,53,0.00,,---,0.00,VWS V14.01,2013-05-10 22:00:00,
2013-05-10 18:04:00,79.5,60.9,29.93,SW,224,0.0,5.0,53,0.00,,---,0.00,VWS V14.01,2013-05-10 22:04:00,
2013-05-10 18:05:00,79.5,60.9,29.93,SW,224,0.0,5.0,53,0.00,,---,0.00,VWS V14.01,2013-05-10 22:05:00,
2013-05-10 18:09:00,79.3,62.3,29.92,SSW,206,0.0,1.0,56,0.00,,---,0.00,VWS V14.01,2013-05-10 22:09:00,
2013-05-10 18:10:00,79.3,62.3,29.92,SSW,206,0.0,1.0,56,0.00,,---,0.00,VWS V14.01,2013-05-10 22:10:00,
2013-05-10 18:15:00,79.2,60.6,29.92,WSW,238,0.0,4.0,53,0.00,,---,0.00,VWS V14.01,2013-05-10 22:15:00,
2013-05-10 18:19:00,79.1,62.6,29.92,SSW,202,0.0,3.0,57,0.00,,---,0.00,VWS V14.01,2013-05-10 22:19:00,
2013-05-10 18:20:00,79.1,62.6,29.92,SSW,202,0.0,3.0,57,0.00,,---,0.00,VWS V14.01,2013-05-10 22:20:00,
2013-05-10 18:24:00,78.9,61.4,29.92,South,191,0.0,3.0,55,0.00,,---,0.00,VWS V14.01,2013-05-10 22:24:00,
2013-05-10 18:25:00,78.9,61.4,29.92,South,191,0.0,3.0,55,0.00,,---,0.00,VWS V14.01,2013-05-10 22:25:00,
2013-05-10 18:29:00,78.7,62.2,29.92,SW,218,4.0,4.0,57,0.00,,---,0.00,VWS V14.01,2013-05-10 22:29:00,
2013-05-10 18:30:00,78.7,62.2,29.92,SW,218,4.0,4.0,57,0.00,,---,0.00,VWS V14.01,2013-05-10 22:30:00,
2013-05-10 18:34:00,78.5,61.5,29.92,SSW,212,0.0,4.0,56,0.00,,---,0.00,VWS V14.01,2013-05-10 22:34:00,
2013-05-10 18:35:00,78.5,61.5,29.92,SSW,212,0.0,4.0,56,0.00,,---,0.00,VWS V14.01,2013-05-10 22:35:00,
2013-05-10 18:40:00,78.4,61.9,29.92,SW,216,5.0,5.0,57,0.00,,---,0.00,VWS V14.01,2013-05-10 22:40:00,
2013-05-10 18:44:00,78.4,62.9,29.92,SW,215,0.0,5.0,59,0.00,,---,0.00,VWS V14.01,2013-05-10 22:44:00,
2013-05-10 18:45:00,78.4,62.9,29.92,SW,215,0.0,5.0,59,0.00,,---,0.00,VWS V14.01,2013-05-10 22:45:00,
2013-05-10 18:49:00,78.2,62.2,29.92,SSW,200,1.0,2.0,58,0.00,,---,0.00,VWS V14.01,2013-05-10 22:49:00,
2013-05-10 18:50:00,78.2,62.2,29.92,SSW,200,1.0,2.0,58,0.00,,---,0.00,VWS V14.01,2013-05-10 22:50:00,
2013-05-10 18:54:00,78.1,61.6,29.92,SE,134,0.0,9.0,57,0.00,,---,0.00,VWS V14.01,2013-05-10 22:54:00,
2013-05-10 18:55:00,78.1,61.6,29.92,SE,134,0.0,9.0,57,0.00,,---,0.00,VWS V14.01,2013-05-10 22:55:00,
2013-05-10 18:59:00,78.0,62.5,29.92,SSW,208,0.0,3.0,59,0.00,,---,0.00,VWS V14.01,2013-05-10 22:59:00,
2013-05-10 19:00:00,78.0,62.5,29.92,SSW,208,0.0,3.0,59,0.00,,---,0.00,VWS V14.01,2013-05-10 23:00:00,
2013-05-10 19:04:00,77.8,62.3,29.92,WSW,243,1.0,2.0,59,0.00,,---,0.00,VWS V14.01,2013-05-10 23:04:00,
2013-05-10 19:05:00,77.8,62.3,29.92,WSW,243,1.0,2.0,59,0.00,,---,0.00,VWS V14.01,2013-05-10 23:05:00,
2013-05-10 19:09:00,77.6,62.2,29.92,SSW,211,0.0,3.0,59,0.00,,---,0.00,VWS V14.01,2013-05-10 23:09:00,
2013-05-10 19:10:00,77.6,62.2,29.92,SSW,211,0.0,3.0,59,0.00,,---,0.00,VWS V14.01,2013-05-10 23:10:00,
2013-05-10 19:14:00,77.4,61.5,29.92,WSW,240,4.0,4.0,58,0.00,,---,0.00,VWS V14.01,2013-05-10 23:14:00,
2013-05-10 19:15:00,77.4,61.5,29.92,WSW,240,4.0,4.0,58,0.00,,---,0.00,VWS V14.01,2013-05-10 23:15:00,
2013-05-10 19:19:00,77.2,61.8,29.92,SSW,197,2.0,4.0,59,0.00,,---,0.00,VWS V14.01,2013-05-10 23:19:00,
2013-05-10 19:20:00,77.2,61.8,29.92,SSW,197,2.0,4.0,59,0.00,,---,0.00,VWS V14.01,2013-05-10 23:20:00,
2013-05-10 19:24:00,77.0,61.6,29.92,South,175,0.0,2.0,59,0.00,,---,0.00,VWS V14.01,2013-05-10 23:24:00,
2013-05-10 19:25:00,77.0,61.6,29.92,South,175,0.0,2.0,59,0.00,,---,0.00,VWS V14.01,2013-05-10 23:25:00,
2013-05-10 19:29:00,76.8,61.9,29.92,SW,222,0.0,4.0,60,0.00,,---,0.00,VWS V14.01,2013-05-10 23:29:00,
2013-05-10 19:30:00,76.8,61.9,29.92,SW,222,0.0,4.0,60,0.00,,---,0.00,VWS V14.01,2013-05-10 23:30:00,
2013-05-10 19:34:00,76.6,61.7,29.92,SW,222,0.0,0.0,60,0.00,,---,0.00,VWS V14.01,2013-05-10 23:34:00,
2013-05-10 19:35:00,76.6,61.7,29.92,SW,222,0.0,0.0,60,0.00,,---,0.00,VWS V14.01,2013-05-10 23:35:00,
2013-05-10 19:39:00,76.4,62.0,29.92,SW,222,0.0,0.0,61,0.00,,---,0.00,VWS V14.01,2013-05-10 23:39:00,
2013-05-10 19:40:00,76.4,62.0,29.92,SW,222,0.0,0.0,61,0.00,,---,0.00,VWS V14.01,2013-05-10 23:40:00,
2013-05-10 19:45:00,76.2,61.8,29.92,SW,222,0.0,1.0,61,0.00,,---,0.00,VWS V14.01,2013-05-10 23:45:00,
2013-05-10 19:49:00,75.8,61.9,29.92,SW,222,0.0,0.0,62,0.00,,---,0.00,VWS V14.01,2013-05-10 23:49:00,
2013-05-10 19:50:00,75.8,61.9,29.92,SW,222,0.0,0.0,62,0.00,,---,0.00,VWS V14.01,2013-05-10 23:50:00,
2013-05-10 19:54:00,75.5,61.6,29.92,SW,222,0.0,0.0,62,0.00,,---,0.00,VWS V14.01,2013-05-10 23:54:00,
2013-05-10 19:55:00,75.5,61.6,29.92,SW,222,0.0,0.0,62,0.00,,---,0.00,VWS V14.01,2013-05-10 23:55:00,
2013-05-10 19:59:00,75.3,61.8,29.93,SE,130,0.0,0.0,63,0.00,,---,0.00,VWS V14.01,2013-05-10 23:59:00,
2013-05-10 20:00:00,75.3,61.8,29.93,SE,130,0.0,0.0,63,0.00,,---,0.00,VWS V14.01,2013-05-11 00:00:00,
2013-05-10 20:05:00,75.0,61.1,29.93,SE,130,0.0,1.0,62,0.00,,---,0.00,VWS V14.01,2013-05-11 00:05:00,
2013-05-10 20:09:00,74.8,61.8,29.93,SE,144,0.0,1.0,64,0.00,,---,0.00,VWS V14.01,2013-05-11 00:09:00,
2013-05-10 20:10:00,74.8,61.8,29.93,SE,144,0.0,1.0,64,0.00,,---,0.00,VWS V14.01,2013-05-11 00:10:00,
2013-05-10 20:14:00,74.5,61.5,29.93,SE,144,0.0,2.0,64,0.00,,---,0.00,VWS V14.01,2013-05-11 00:14:00,
2013-05-10 20:15:00,74.5,61.5,29.93,SE,144,0.0,2.0,64,0.00,,---,0.00,VWS V14.01,2013-05-11 00:15:00,
2013-05-10 20:19:00,74.3,61.8,29.92,SE,144,0.0,0.0,65,0.00,,---,0.00,VWS V14.01,2013-05-11 00:19:00,
2013-05-10 20:20:00,74.3,61.8,29.92,SE,144,0.0,0.0,65,0.00,,---,0.00,VWS V14.01,2013-05-11 00:20:00,
2013-05-10 20:24:00,74.0,61.5,29.93,SE,144,0.0,0.0,65,0.00,,---,0.00,VWS V14.01,2013-05-11 00:24:00,
2013-05-10 20:25:00,74.0,61.5,29.93,SE,144,0.0,0.0,65,0.00,,---,0.00,VWS V14.01,2013-05-11 00:25:00,
2013-05-10 20:29:00,73.8,61.7,29.93,SE,144,0.0,0.0,66,0.00,,---,0.00,VWS V14.01,2013-05-11 00:29:00,
2013-05-10 20:30:00,73.8,61.7,29.93,SE,144,0.0,0.0,66,0.00,,---,0.00,VWS V14.01,2013-05-11 00:30:00,
2013-05-10 20:34:00,73.6,61.5,29.93,SW,218,0.0,3.0,66,0.00,,---,0.00,VWS V14.01,2013-05-11 00:34:00,
2013-05-10 20:35:00,73.6,61.5,29.93,SW,218,0.0,3.0,66,0.00,,---,0.00,VWS V14.01,2013-05-11 00:35:00,
2013-05-10 20:39:00,73.3,61.7,29.93,SW,218,0.0,0.0,67,0.00,,---,0.00,VWS V14.01,2013-05-11 00:39:00,
2013-05-10 20:40:00,73.3,61.7,29.93,SW,218,0.0,0.0,67,0.00,,---,0.00,VWS V14.01,2013-05-11 00:40:00,
2013-05-10 20:44:00,73.1,61.5,29.93,SW,218,0.0,0.0,67,0.00,,---,0.00,VWS V14.01,2013-05-11 00:44:00,
2013-05-10 20:45:00,73.1,61.5,29.93,SW,218,0.0,0.0,67,0.00,,---,0.00,VWS V14.01,2013-05-11 00:45:00,
2013-05-10 20:49:00,72.9,61.3,29.93,SW,218,0.0,0.0,67,0.00,,---,0.00,VWS V14.01,2013-05-11 00:49:00,
2013-05-10 20:50:00,72.9,61.3,29.93,SW,218,0.0,0.0,67,0.00,,---,0.00,VWS V14.01,2013-05-11 00:50:00,
2013-05-10 20:54:00,72.8,61.6,29.92,SW,218,0.0,0.0,68,0.00,,---,0.00,VWS V14.01,2013-05-11 00:54:00,
2013-05-10 20:55:00,72.8,61.6,29.92,SW,218,0.0,0.0,68,0.00,,---,0.00,VWS V14.01,2013-05-11 00:55:00,
2013-05-10 21:00:00,72.6,61.9,29.93,SW,218,0.0,0.0,69,0.00,,---,0.00,VWS V14.01,2013-05-11 01:00:00,
2013-05-10 21:04:00,72.4,62.5,29.93,SW,218,0.0,0.0,71,0.00,,---,0.00,VWS V14.01,2013-05-11 01:04:00,
2013-05-10 21:05:00,72.4,62.5,29.93,SW,218,0.0,0.0,71,0.00,,---,0.00,VWS V14.01,2013-05-11 01:05:00,
2013-05-10 21:09:00,72.2,62.3,29.93,SW,218,0.0,0.0,71,0.00,,---,0.00,VWS V14.01,2013-05-11 01:09:00,
2013-05-10 21:10:00,72.2,62.3,29.93,SW,218,0.0,0.0,71,0.00,,---,0.00,VWS V14.01,2013-05-11 01:10:00,
2013-05-10 21:15:00,71.9,62.4,29.93,SW,218,0.0,0.0,72,0.00,,---,0.00,VWS V14.01,2013-05-11 01:15:00,
2013-05-10 21:19:00,71.7,62.2,29.93,SW,218,0.0,1.0,72,0.00,,---,0.00,VWS V14.01,2013-05-11 01:19:00,
2013-05-10 21:20:00,71.7,62.2,29.93,SW,218,0.0,1.0,72,0.00,,---,0.00,VWS V14.01,2013-05-11 01:20:00,
2013-05-10 21:24:00,71.4,62.7,29.93,SW,218,0.0,0.0,74,0.00,,---,0.00,VWS V14.01,2013-05-11 01:24:00,
2013-05-10 21:25:00,71.4,62.7,29.93,SW,218,0.0,0.0,74,0.00,,---,0.00,VWS V14.01,2013-05-11 01:25:00,
2013-05-10 21:29:00,71.3,63.0,29.94,SW,218,0.0,0.0,75,0.00,,---,0.00,VWS V14.01,2013-05-11 01:29:00,
2013-05-10 21:30:00,71.3,63.0,29.94,SW,218,0.0,0.0,75,0.00,,---,0.00,VWS V14.01,2013-05-11 01:30:00,
2013-05-10 21:34:00,71.1,63.2,29.94,SW,218,0.0,0.0,76,0.00,,---,0.00,VWS V14.01,2013-05-11 01:34:00,
2013-05-10 21:35:00,71.1,63.2,29.94,SW,218,0.0,0.0,76,0.00,,---,0.00,VWS V14.01,2013-05-11 01:35:00,
2013-05-10 21:40:00,71.0,62.7,29.94,SW,218,0.0,0.0,75,0.00,,---,0.00,VWS V14.01,2013-05-11 01:40:00,
2013-05-10 21:44:00,70.8,62.5,29.94,SW,218,0.0,0.0,75,0.00,,---,0.00,VWS V14.01,2013-05-11 01:44:00,
2013-05-10 21:45:00,70.8,62.5,29.94,SW,218,0.0,0.0,75,0.00,,---,0.00,VWS V14.01,2013-05-11 01:45:00,
2013-05-10 21:49:00,70.7,63.1,29.94,SW,218,0.0,0.0,77,0.00,,---,0.00,VWS V14.01,2013-05-11 01:49:00,
2013-05-10 21:50:00,70.7,63.1,29.94,SW,218,0.0,0.0,77,0.00,,---,0.00,VWS V14.01,2013-05-11 01:50:00,
2013-05-10 21:54:00,70.5,63.3,29.94,SW,218,0.0,1.0,78,0.00,,---,0.00,VWS V14.01,2013-05-11 01:54:00,
2013-05-10 21:55:00,70.5,63.3,29.94,SW,218,0.0,1.0,78,0.00,,---,0.00,VWS V14.01,2013-05-11 01:55:00,
2013-05-10 22:00:00,70.4,63.6,29.94,SW,218,0.0,0.0,79,0.00,,---,0.00,VWS V14.01,2013-05-11 02:00:00,
2013-05-10 22:04:00,70.2,63.0,29.94,SW,219,1.0,3.0,78,0.00,,---,0.00,VWS V14.01,2013-05-11 02:04:00,
2013-05-10 22:05:00,70.2,63.0,29.94,SW,219,1.0,3.0,78,0.00,,---,0.00,VWS V14.01,2013-05-11 02:05:00,
2013-05-10 22:09:00,70.4,62.1,29.94,South,191,0.0,2.0,75,0.00,,---,0.00,VWS V14.01,2013-05-11 02:09:00,
2013-05-10 22:10:00,70.4,62.1,29.94,South,191,0.0,2.0,75,0.00,,---,0.00,VWS V14.01,2013-05-11 02:10:00,
2013-05-10 22:14:00,70.6,62.7,29.94,South,191,0.0,2.0,76,0.00,,---,0.00,VWS V14.01,2013-05-11 02:14:00,
2013-05-10 22:15:00,70.6,62.7,29.94,South,191,0.0,2.0,76,0.00,,---,0.00,VWS V14.01,2013-05-11 02:15:00,
2013-05-10 22:19:00,70.6,62.7,29.94,South,191,0.0,0.0,76,0.00,,---,0.00,VWS V14.01,2013-05-11 02:19:00,
2013-05-10 22:20:00,70.6,62.7,29.94,South,191,0.0,0.0,76,0.00,,---,0.00,VWS V14.01,2013-05-11 02:20:00,
2013-05-10 22:24:00,70.6,62.3,29.94,South,191,0.0,0.0,75,0.00,,---,0.00,VWS V14.01,2013-05-11 02:24:00,
2013-05-10 22:25:00,70.6,62.3,29.94,South,191,0.0,0.0,75,0.00,,---,0.00,VWS V14.01,2013-05-11 02:25:00,
2013-05-10 22:29:00,70.6,62.3,29.94,South,191,0.0,0.0,75,0.00,,---,0.00,VWS V14.01,2013-05-11 02:29:00,
2013-05-10 22:30:00,70.6,62.3,29.94,South,191,0.0,0.0,75,0.00,,---,0.00,VWS V14.01,2013-05-11 02:30:00,
2013-05-10 22:35:00,70.6,61.9,29.94,South,191,0.0,1.0,74,0.00,,---,0.00,VWS V14.01,2013-05-11 02:35:00,
2013-05-10 22:39:00,70.7,62.0,29.94,South,191,0.0,0.0,74,0.00,,---,0.00,VWS V14.01,2013-05-11 02:39:00,
2013-05-10 22:40:00,70.7,62.0,29.94,South,191,0.0,0.0,74,0.00,,---,0.00,VWS V14.01,2013-05-11 02:40:00,
2013-05-10 22:44:00,70.8,62.1,29.94,South,191,0.0,0.0,74,0.00,,---,0.00,VWS V14.01,2013-05-11 02:44:00,
2013-05-10 22:45:00,70.8,62.1,29.94,South,191,0.0,0.0,74,0.00,,---,0.00,VWS V14.01,2013-05-11 02:45:00,
2013-05-10 22:49:00,70.8,62.1,29.93,South,191,0.0,0.0,74,0.00,,---,0.00,VWS V14.01,2013-05-11 02:49:00,
2013-05-10 22:50:00,70.8,62.1,29.93,South,191,0.0,0.0,74,0.00,,---,0.00,VWS V14.01,2013-05-11 02:50:00,
2013-05-10 22:54:00,70.8,62.1,29.93,South,191,0.0,0.0,74,0.00,,---,0.00,VWS V14.01,2013-05-11 02:54:00,
2013-05-10 22:55:00,70.8,62.1,29.93,South,191,0.0,0.0,74,0.00,,---,0.00,VWS V14.01,2013-05-11 02:55:00,
2013-05-10 23:00:00,70.7,62.0,29.92,South,191,0.0,0.0,74,0.00,,---,0.00,VWS V14.01,2013-05-11 03:00:00,
2013-05-10 23:04:00,70.6,61.9,29.91,South,191,0.0,0.0,74,0.00,,---,0.00,VWS V14.01,2013-05-11 03:04:00,
2013-05-10 23:05:00,70.6,61.9,29.91,South,191,0.0,0.0,74,0.00,,---,0.00,VWS V14.01,2013-05-11 03:05:00,
2013-05-10 23:09:00,70.6,62.3,29.91,South,191,0.0,0.0,75,0.00,,---,0.00,VWS V14.01,2013-05-11 03:09:00,
2013-05-10 23:10:00,70.6,62.3,29.91,South,191,0.0,0.0,75,0.00,,---,0.00,VWS V14.01,2013-05-11 03:10:00,
2013-05-10 23:15:00,70.4,62.5,29.91,South,191,0.0,0.0,76,0.00,,---,0.00,VWS V14.01,2013-05-11 03:15:00,
2013-05-10 23:19:00,70.2,62.7,29.90,South,191,0.0,0.0,77,0.00,,---,0.00,VWS V14.01,2013-05-11 03:19:00,
2013-05-10 23:20:00,70.2,62.7,29.90,South,191,0.0,0.0,77,0.00,,---,0.00,VWS V14.01,2013-05-11 03:20:00,
2013-05-10 23:24:00,69.9,63.5,29.91,South,191,0.0,0.0,80,0.00,,---,0.00,VWS V14.01,2013-05-11 03:24:00,
2013-05-10 23:25:00,69.9,63.5,29.91,South,191,0.0,0.0,80,0.00,,---,0.00,VWS V14.01,2013-05-11 03:25:00,
2013-05-10 23:30:00,69.6,63.2,29.91,South,191,0.0,0.0,80,0.00,,---,0.00,VWS V14.01,2013-05-11 03:30:00,
2013-05-10 23:34:00,69.3,62.5,29.92,South,191,0.0,0.0,79,0.00,,---,0.00,VWS V14.01,2013-05-11 03:34:00,
2013-05-10 23:35:00,69.3,62.5,29.92,South,191,0.0,0.0,79,0.00,,---,0.00,VWS V14.01,2013-05-11 03:35:00,
2013-05-10 23:39:00,69.1,62.7,29.92,South,191,0.0,0.0,80,0.00,,---,0.00,VWS V14.01,2013-05-11 03:39:00,
2013-05-10 23:40:00,69.1,62.7,29.92,South,191,0.0,0.0,80,0.00,,---,0.00,VWS V14.01,2013-05-11 03:40:00,
2013-05-10 23:45:00,68.9,62.8,29.92,South,191,0.0,0.0,81,0.00,,---,0.00,VWS V14.01,2013-05-11 03:45:00,
2013-05-10 23:49:00,68.8,62.4,29.92,South,191,0.0,1.0,80,0.00,,---,0.00,VWS V14.01,2013-05-11 03:49:00,
2013-05-10 23:50:00,68.8,62.4,29.92,South,191,0.0,1.0,80,0.00,,---,0.00,VWS V14.01,2013-05-11 03:50:00,
2013-05-10 23:54:00,68.9,62.5,29.93,South,191,0.0,0.0,80,0.00,,---,0.00,VWS V14.01,2013-05-11 03:54:00,
2013-05-10 23:55:00,68.9,62.5,29.93,South,191,0.0,0.0,80,0.00,,---,0.00,VWS V14.01,2013-05-11 03:55:00,
2013-05-10 23:59:00,68.9,61.8,29.93,South,191,0.0,1.0,78,0.00,,---,0.00,VWS V14.01,2013-05-11 03:59:00,